Location: *
(0.1100°N, 5.5000°E)
Time: 21:14:30
(UTC+00:00)

Cosmos 841 Rocket - Visible Passes

Search period start: 04 June 2023 00:00
Search period end: 14 June 2023 00:00
Orbit: 746 x 770 km, 74.0° (Epoch: 04 June)

Date Brightness Start Highest point End Pass type
(mag) Time Alt. Az. Time Alt. Az. Time Alt. Az.
07 Jun 6.3 20:42:18 10° NNW 20:42:36 12° NNW 20:42:36 12° NNW visible
08 Jun 5.5 20:02:23 10° N 20:03:56 20° N 20:03:56 20° N visible
09 Jun 5.2 19:23:15 10° NNE 19:25:20 20° NE 19:25:20 20° NE visible
10 Jun 5.5 18:45:42 10° NE 18:46:47 12° ENE 18:46:47 12° ENE visible
10 Jun 5.6 20:24:32 10° NW 20:26:53 24° NW 20:26:53 24° NW visible
11 Jun 3.9 19:44:13 10° NNW 19:48:24 58° NNW 19:48:24 58° NNW visible
12 Jun 3.8 19:04:37 10° N 19:09:34 43° ENE 19:09:57 42° E visible
13 Jun 4.9 18:25:59 10° NNE 18:29:41 19° ENE 18:31:35 16° ESE visible
13 Jun 5.4 20:07:03 10° NW 20:11:14 24° WSW 20:11:42 24° WSW visible
